{"data":{"norad_id":66576,"epoch":"2026-09-19T22:05:29.861664Z","epoch_age_seconds":136725,"freshness":"FRESH","line1":"1 66576U 25268V   26262.92048451  .00009576  00000+0  35702-3 0  9990","line2":"2 66576  43.0030 330.2513 0001770 271.2135  88.8514 15.27584464 47668","mean_motion":15.27584464,"eccentricity":0.000177,"inclination_deg":43.003,"raan_deg":330.2513,"arg_perigee_deg":271.2135,"mean_anomaly_deg":88.8514,"bstar":0.00035702,"rev_number":4766,"period_min":94.266473241639,"perigee_km":481.82130167721,"apogee_km":484.25015682337,"semimajor_km":6861.1727292503,"source":"CELESTRAK","updated_at":"2026-09-21T09:00:35.973432Z"}}